User: anonymous   Login
Location: Brunembert
(50.7122°N, 1.8935°E)
Time: 04:18:25
(UTC+00:00)
Language:

Meteor 2-2 Rocket - Orbit

View from above orbital plane
View from above orbital plane
View from above satellite
View from above satellite

Ground track
Ground track

The orbit data is extracted from the following two-line orbital elements,

1 09662U 77002B   21169.37021804  .00000059  00000-0  31353-4 0  9996
2 09662  81.2748 116.6463 0051398 313.5097  46.1802 14.00953417271090
Epoch (UTC): 18 June 2021 08:53:06
Eccentricity: 0.0051398
inclination: 81.2748°
perigee height: 853 km
apogee height: 928 km
right ascension of ascending node: 116.6463°
argument of perigee: 313.5097°
revolutions per day: 14.00953417
mean anomaly at epoch: 46.1802°
orbit number at epoch: 27109

The dashed part of the orbit path shows where the satellite is in the earth's shadow,  

DLR